Location: Berlin
(38.3226°N, 75.2177°W)
Time: 11:47:00
(UTC+00:00)

SJ-12 - Pass Details

Date: 26 October 2020
Orbit: 568 x 585 km, 97.7° (Epoch: 29 November)

Event Time Altitude Azimuth Distance (km) Brightness Sun altitude
Rises 10:05:33 0° 11° (NNE) 2,808 7.5 -15.5°
Reaches altitude 10° 10:07:43 10° 12° (NNE) 1,902 6.6 -15.0°
Maximum altitude 10:11:50 88° 283° (WNW) 583 3.9 -14.2°
Drops below altitude 10° 10:15:55 10° 194° (SSW) 1,876 6.4 -13.4°
Sets 10:18:02 0° 194° (SSW) 2,767 7.3 -13.0°
